星链-34981 (STARLINK-34981)

导读

STARLINK-34981是美国太空探索技术公司SpaceX星链星座的一员,于2025年8月14日发射入轨。星链项目旨在构建全球卫星互联网星座,为全球偏远地区、海洋等网络覆盖薄弱区域提供高速宽带服务,该卫星进一步扩充了星链星座的在轨规模,提升星座服务覆盖能力与网络稳定性。

Basic Information
目录编号:
65198
目录名称:
STARLINK-34981
国际标识:
2025-176A
轨道中心:
EARTH
卫星名称:
星链-34981
卫星全名:
星链-34981 (STARLINK-34981)
卫星状态:
在轨 (已飞行386 天)
发射日期:
2025-08-14 UTC
国别 :
美国 (US)
星等 :
--
Orbit Information
数据来源 国际轨道数据 AOE轨道数据
星历时间 2026-09-04T19:16:32+0800
9小时前
查看轨道信息
2026-09-01T10:00:00+0800
3天前
查看轨道信息
半长轴 6840.859km 6840.771km
偏心率 0.0001254 0.0001587
轨道倾角 53.160° 53.162°
近地点辐角 94.278° 85.628°
升交点赤经 44.357° 60.183°
平近点角 265.837° 277.803°
近地点 461.864km 461.548km
远地点 463.58km 463.72km
周期 93.848分钟 93.846分钟
每日圈数 15.343938 15.344235
Detailed Information
固有亮度:
5
最大亮度:
2.5
卫星平台:
Starlink V1.0
覆盖范围:
全球
运营商:
太空探索技术公司
运营商所在国:
美国
制造商(研发单位):
太空探索技术公司
制造商所在国:
美国
使用方式:
暂无
Satellite Introduction
Starlink 计划是 SpaceX 推出的全球卫星互联网项目,通过发射低轨道卫星,为全球尤其是偏远地区提供高速、低延迟的互联网服务。自 2019 年起,Starlink 已部署数千颗卫星,旨在缩小全球数字鸿沟,推动互联网普及。该项目还为军事、航空等行业提供通信支持,带来广泛经济效益。
2D Orbit Map
3D Orbit Map
Orbit Altitude Analysis Chart
Orbit Inclination Analysis Chart
Orbit Comprehensive Analysis Chart
View Comprehensive Chart
Conjunction Data List
Event ID Objects TCA Miss Dist (km) Collision Risk Probability Collision Risk Index (CRI) Action
CDM_260907-003705-318206-519821
2026-09-07T
00:37:03+0000
2.587 km
极远距离
2.567666E-7 极低风险 0.23